Find Starlink 2736

NORAD ID: 48640 Int'l Des: 2021-044 Owner: SPXS Country: US Constellation: starlink operational
LEOCIRCULAR

リアルタイム位置

3D地球を読み込み中...

Starlink 2736について

説明を読み込み中...

次回通過

Passes for default location (London). Set your location on the main map for personalized predictions.

高度履歴

Loading altitude history...

軌道要素

1 48640U 21044C 26126.50091358 .00005473 00000-0 18788-3 0 9995
2 48640 53.1577 205.0178 0001113 87.1212 272.9917 15.31720250272679
Epoch: May 6, 2026 • Age: 8 hours

現在のステータス

高度 472.1 km
速度 7.63 km/s
衛星直下点 31.69°N, 65.72°E
打ち上げ日 May 26, 2021
運用期間 4.9 years
タイプ internet

技術仕様

分類 Payload
質量 260.00 kg
乾燥質量 248.00 kg
総質量 260.00 kg
長さ 0.20 m
直径 2.80 m
スパン 9.00 m
形状 Box + pan
製造者 SPXS
バスタイプ Starlink
フェーズステータス In Orbit
所有者/国 SPXS/US

Most Searched